sat.trackr.live / text

‹ back to catalog

LYNK TOWER 6

NORAD 59123 · 2024-043AB

PAYLOAD ACTIVE UNKNOWN

§ Identity

Operator
Country
US
Launch date
2024-03-04
Launch site
AFWTR
Launch vehicle
Mass (kg)
RCS (m²)

External: N2YO · Heavens-Above · Gunter

§ Orbital elements

Epoch: 2026-05-25T04:52:15.166848Z

Period
94.06 min
Inclination
97.5564°
Eccentricity
0.0009204
Mean motion
15.30900192 rev/d
Perigee alt
466.8 km
Apogee alt
479.4 km
Semi-major
6,851.3 km
B*
1.6338e-4
RAAN
281.7694°
Arg perigee
333.9410°
Mean anomaly
26.1366°
Rev number
12,351

§ Raw data

LYNK TOWER 61 59123U 24043AB  26145.20295332  .00004803  00000+0  16338-3 0  99952 59123  97.5564 281.7694 0009204 333.9410  26.1366 15.30900192123519

JSON: /api/v1/satellites/59123 · /tle

For live sub-satellite position, see the globe view (requires WebGL).

§ Visibility from observer

Set your observer location to see the next 7 days of passes ≥ 10°. The values pass through the URL so the page stays shareable.

No JS? Fill the form by hand. The geolocation button needs JavaScript.

§ Radio — SatNOGS DB

ModeDescriptionDownlinkUplink
BPSK S-band telemetry 2.260 GHz

1 transmitter · refreshed weekly from db.satnogs.org